Hourly Data Report for April 23, 2016

All times are specified in Local Standard Time (LST). Add 1 hour to adjust for Daylight Saving Time where and when it is observed.

EMERSON AUTO
MANITOBA

49°00'00.000" N
97°14'15.000" W
242.00 m
5020881
71560
WEX

Download Data

Hourly Data (April 2016)
Hourly Data Report for April 23, 2016
Temp Definition
°C
Dew Point Temp Definition
°C
Rel Hum Definition
%
Wind Dir Definition
10's deg

Wind Spd Definition
km/h
Visibility Definition
km
Stn Press Definition
kPa
Hmdx Definition


Wind Chill Definition


Weather Definition


TIME
00:00 3.7 -1.9 66 3 15   99.20     LegendNANA
01:00 3.9 -0.8 71 4 16   99.17     LegendNANA
02:00 3.7 0.0 77 3 16   99.12     LegendNANA
03:00 4.0 -1.4 68 5 15   99.07     LegendNANA
04:00 3.9 -1.8 67 5 14   99.03     LegendNANA
05:00 4.1 -3.1 59 6 17   98.97     LegendNANA
06:00 3.9 -2.2 65 5 16   98.96     LegendNANA
07:00 4.7 -1.7 63 6 16   98.93     LegendNANA
08:00 5.7 -2.1 57 8 16   98.87     LegendNANA
09:00 6.5 -1.0 59 8 14   98.83     LegendNANA
10:00 7.3 -0.5 58 9 16   98.78     LegendNANA
11:00 7.7 -0.2 57 8 21   98.76     LegendNANA
12:00 8.7 -0.3 53 7 20   98.75     LegendNANA
13:00 10.0 0.7 52 8 18   98.71     LegendNANA
14:00 9.6 0.7 54 7 22   98.67     LegendNANA
15:00 10.4 0.5 50 7 24   98.57     LegendNANA
16:00 11.4 0.9 48 6 22   98.55     LegendNANA
17:00 10.2 1.3 54 7 25   98.58     LegendNANA
18:00 9.1 1.7 60 6 25   98.62     LegendNANA
19:00 8.4 1.9 64 7 23   98.63     LegendNANA
20:00 8.1 1.7 64 6 22   98.66     LegendNANA
21:00 7.7 1.9 67 6 21   98.68     LegendNANA
22:00 7.4 2.0 68 7 17   98.70     LegendNANA
23:00 7.4 1.6 67 7 20   98.68     LegendNANA

Notes on Data Quality.

Legend

  • E = Estimated
  • M = Missing
  • NA = Not Available
  • ‡ = Partner data that is not subject to review by the National Climate Archives
Date modified: